Location: *
(46.1833°N, 22.7667°E)
Time: 16:33:26
(UTC+00:00)

NOSS 3-4 (A) - Pass Details

Date: 17 September 2019
Orbit: 910 x 1303 km, 63.4° (Epoch: 17 October)

Event Time Altitude Azimuth Distance (km) Brightness Sun altitude
Rises 16:54:35 0° 320° (NW) 3,775 7.4 -3.8°
Reaches altitude 10° 16:57:17 10° 328° (NNW) 2,876 6.6 -4.3°
Maximum altitude 17:03:44 41° 38° (NE) 1,573 4.4 -5.4°
Drops below altitude 10° 17:10:46 10° 107° (ESE) 3,138 5.5 -6.6°
Enters shadow 17:11:35 - 110° (ESE) 3,403 5.7 -6.7°
